Location: Gleizolles
(44.4833°N, 6.7667°E)
Time: 05:08:39
(UTC+00:00)

Transit 4A - Pass Details

Date: 02 July 2024
Orbit: 870 x 973 km, 66.8° (Epoch: 14 July)

Event Time Altitude Azimuth Distance (km) Brightness Sun altitude
Rises 20:05:50 0° 225° (SW) 3,456 10.9 -7.1°
Reaches altitude 10° 20:08:22 10° 230° (SW) 2,515 10.3 -7.4°
Maximum altitude 20:14:03 54° 307° (NW) 1,049 8.7 -8.2°
Drops below altitude 10° 20:19:46 10° 25° (NNE) 2,533 10.5 -8.9°
Sets 20:22:20 0° 30° (NNE) 3,482 11.1 -9.2°
